Starlink 33718

operational
NORAD ID: 63476 Int'l Des: 2025-070 Owner: SPXS Country: US Constellation: starlink
LEOCIRCULAR

About Starlink 33718

Description loading...

Live Position

Loading 3D Globe...

Upcoming Passes

Altitude History

Altitude vs Time

uPlot chart will show altitude changes over time

Two-Line Element Set

1 63476U 25070S 25306.14540073 .00025484 00000-0 93191-3 0 9999
2 63476 43.0022 259.8023 0001272 273.3138 86.7568 15.27597713 33471
Epoch: Nov 2, 2025 • Age: 44 hours

Current Status

Altitude 487.1 km
Velocity 7.62 km/s
Sub-Earth Point -21.91°S, 168.63°W
Launch Date Apr 6, 2025
Age 0.5 years
Type internet

Technical Details

Classification Payload
Mass 575.00 kg
Dry Mass 530.00 kg
Total Mass 575.00 kg
Length 0.30 m
Diameter 4.10 m
Span 29.00 m
Shape Box + pan
Manufacturer SPXS
Bus Type Starlink V2MO
Phase Status In Orbit
Owner/State SPXS/US

Large Constellations

Loading constellations...